Location: French Creek State Gamelands
(40.1750°N, 75.7969°W)
Time: 08:30:04
(UTC-04:00)

ISS - All Passes

Search period start: 05 August 2015 00:00
Search period end: 15 August 2015 00:00
Orbit: 401 x 403 km, 51.6° (Epoch: 05 August)

Date Brightness Start Highest point End Pass type
(mag) Time Alt. Az. Time Alt. Az. Time Alt. Az.
05 Aug - 00:23:09 10° NNW 00:24:50 13° NNE 00:26:33 10° NE visible
05 Aug - 01:58:50 10° NW 02:01:56 41° NNE 02:05:03 10° ESE night (unlit)
05 Aug - 03:35:39 10° W 03:38:13 21° SW 03:40:44 10° S night (unlit)
05 Aug - 18:38:48 10° S 18:40:48 16° SE 18:42:53 10° E daylight
05 Aug - 20:13:46 10° WSW 20:16:57 54° NW 20:20:10 10° NE daylight
05 Aug - 21:52:01 10° NW 21:53:58 15° NNW 21:55:53 10° NNE visible
05 Aug - 23:30:14 10° NNW 23:31:27 12° N 23:32:42 10° NNE visible
06 Aug - 01:05:58 10° NNW 01:08:45 25° NNE 01:11:34 10° E visible
06 Aug - 02:42:11 10° WNW 02:45:18 42° SW 02:48:23 10° SSE night (unlit)
06 Aug - 19:20:39 10° SW 19:23:53 77° SE 19:27:09 10° NE daylight
06 Aug - 20:58:12 10° WNW 21:00:39 19° NNW 21:03:05 10° NNE visible
06 Aug - 22:37:01 10° NNW 22:38:04 11° N 22:39:06 10° NNE visible
07 Aug - 00:13:09 10° NNW 00:15:29 18° NNE 00:17:51 10° ENE visible
07 Aug - 01:49:01 10° NW 01:52:17 88° SW 01:55:33 10° SE night (unlit)
07 Aug - 18:27:53 10° SSW 18:30:54 36° SE 18:33:57 10° ENE daylight
07 Aug - 20:04:30 10° W 20:07:22 28° NNW 20:10:15 10° NE daylight
07 Aug - 21:43:20 10° NNW 21:44:39 12° N 21:45:57 10° NNE visible
07 Aug - 23:20:19 10° NNW 23:22:08 14° NNE 23:24:00 10° NE visible
08 Aug - 00:56:01 10° NW 00:59:11 48° NNE 01:02:22 10° ESE visible
08 Aug - 02:33:05 10° W 02:35:24 18° SW 02:37:39 10° S night (unlit)
08 Aug - 17:35:39 10° S 17:37:58 19° SE 17:40:21 10° E daylight
08 Aug - 19:11:02 10° WSW 19:14:10 46° NNW 19:17:20 10° NE daylight
08 Aug - 20:49:26 10° NW 20:51:15 14° NNW 20:53:02 10° NNE visible
08 Aug - 22:27:25 10° NNW 22:28:45 12° N 22:30:05 10° NNE visible
09 Aug - 00:03:06 10° NW 00:06:00 28° NNE 00:08:54 10° E visible
09 Aug - 01:39:27 10° WNW 01:42:28 35° SW 01:45:27 10° SSE night (unlit)
09 Aug - 18:17:48 10° SW 18:21:03 88° NW 18:24:19 10° NE daylight
09 Aug - 19:55:33 10° WNW 19:57:53 18° NNW 20:00:11 10° NNE daylight
09 Aug - 21:34:16 10° NNW 21:35:18 11° N 21:36:22 10° NNE visible
09 Aug - 23:10:14 10° NNW 23:12:43 20° NNE 23:15:12 10° ENE visible
10 Aug - 00:46:11 10° NW 00:49:26 73° SW 00:52:41 10° SE visible
10 Aug - 17:24:54 10° SSW 17:28:00 44° SE 17:31:08 10° ENE daylight
10 Aug - 19:01:47 10° W 19:04:33 25° NNW 19:07:19 10° NNE daylight
10 Aug - 20:40:39 10° NNW 20:41:52 12° N 20:43:04 10° NNE visible
10 Aug - 22:17:23 10° NNW 22:19:21 15° NNE 22:21:20 10° NE visible
10 Aug - 23:53:06 10° NW 23:56:20 56° NE 23:59:32 10° ESE visible
11 Aug - 01:30:29 10° W 01:32:28 15° SW 01:34:22 10° SSW night (unlit)
11 Aug - 16:32:27 10° S 16:35:01 22° SE 16:37:38 10° E daylight
11 Aug - 18:08:12 10° WSW 18:11:18 39° NNW 18:14:23 10° NE daylight
11 Aug - 19:46:45 10° NW 19:48:25 13° NNW 19:50:04 10° NNE daylight
11 Aug - 21:24:29 10° NNW 21:25:55 12° N 21:27:24 10° NE visible
11 Aug - 23:00:09 10° NW 23:03:07 32° NNE 23:06:06 10° E visible
12 Aug - 00:36:37 10° WNW 00:39:30 29° SW 00:42:22 10° SSE night (unlit)
12 Aug - 15:41:05 10° SSE 15:42:04 11° SE 15:43:11 10° ESE daylight
12 Aug - 17:14:52 10° WSW 17:18:07 74° NW 17:21:23 10° NE daylight
12 Aug - 18:52:48 10° WNW 18:55:01 16° NNW 18:57:11 10° NNE daylight
12 Aug - 20:31:22 10° NNW 20:32:27 11° N 20:33:33 10° NNE visible
12 Aug - 22:07:14 10° NNW 22:09:49 21° NNE 22:12:26 10° ENE visible
12 Aug - 23:43:15 10° WNW 23:46:29 60° SW 23:49:41 10° SE visible
13 Aug - 16:21:50 10° SW 16:25:01 54° SE 16:28:12 10° ENE daylight
13 Aug - 17:58:58 10° WNW 18:01:38 23° NNW 18:04:17 10° NNE daylight
13 Aug - 19:37:50 10° NNW 19:38:58 11° N 19:40:05 10° NNE daylight
13 Aug - 21:14:20 10° NNW 21:16:26 16° NNE 21:18:33 10° ENE visible
13 Aug - 22:50:07 10° NW 22:53:21 67° NE 22:56:36 10° ESE visible
14 Aug - 00:27:54 10° WSW 00:29:26 13° SW 00:30:51 10° SSW night (unlit)
14 Aug - 15:29:13 10° SSW 15:31:58 26° SE 15:34:46 10° ENE daylight
14 Aug - 17:05:17 10° W 17:08:19 34° NNW 17:11:21 10° NE daylight
14 Aug - 18:43:57 10° NW 18:45:29 13° N 18:47:01 10° NNE daylight
14 Aug - 20:21:25 10° NNW 20:22:59 13° N 20:24:35 10° NE daylight
14 Aug - 21:57:05 10° NW 22:00:09 36° NNE 22:03:12 10° E visible
14 Aug - 23:33:43 10° WNW 23:36:27 24° SW 23:39:09 10° S visible
